This demonstration page uses our WeatherBlox Daily Observations layout. Learn more.

Left ArrowRight Arrow

41.86663, -103.66717

Hourly Observations for November 3, 2019

Temp ( °F °C ) Dew Point ( °F °C ) Humidity (%) Winds ( mph kmh ) Pressure ( in mb ) Visibility ( mi km ) Precip ( " mm )
12:53 am 00:53 Clear 26 -3.3 19 -7.2 75 75 Calm 30.09 1019 10 16 0.00 0.00
1:53 am 01:53 Clear 26 -3.3 19 -7.2 75 75 Calm 30.05 1018 10 16 0.00 0.00
1:53 am 01:53 Clear 24 -4.4 19 -7.2 81 81 Calm 30.04 1017 10 16 0.00 0.00
2:53 am 02:53 Clear 24 -4.4 20 -6.7 84 84 N 3 6 30.01 1016 10 16 0.00 0.00
3:53 am 03:53 Clear 25 -3.9 20 -6.7 81 81 Calm 30.01 1016 10 16 0.00 0.00
4:53 am 04:53 Clear 26 -3.3 21 -6.1 81 81 NNE 3 6 30.02 1017 10 16 0.00 0.00
5:53 am 05:53 Clear 26 -3.3 21 -6.1 81 81 Calm 30.03 1017 10 16 0.00 0.00
6:53 am 06:53 Sunny 26 -3.3 22 -5.6 84 84 NNW 8 13 30.03 1017 10 16 0.00 0.00
7:53 am 07:53 Sunny 33 0.6 24 -4.4 70 70 WNW 5 7 30.04 1017 10 16 0.00 0.00
8:53 am 08:53 Mostly Sunny 38 3.3 26 -3.3 62 62 W 3 6 30.05 1018 10 16 0.00 0.00
9:53 am 09:53 Sunny 45 7.2 27 -2.8 49 49 W 8 13 30.03 1017 10 16 0.00 0.00
10:53 am 10:53 Sunny 52 11.1 27 -2.8 38 38 NW 13 20 30.02 1017 10 16 0.00 0.00
11:53 am 11:53 Sunny 56 13.3 29 -1.7 36 36 NNW 14 22 29.97 1015 10 16 0.00 0.00
12:53 pm 12:53 Sunny 56 13.3 28 -2.2 34 34 WNW 8 13 29.96 1014 10 16 0.00 0.00
1:53 pm 13:53 Sunny 55 12.8 26 -3.3 33 33 WNW 9 15 29.96 1014 10 16 0.00 0.00
2:53 pm 14:53 Sunny 53 11.7 29 -1.7 40 40 N 12 19 29.97 1015 10 16 0.00 0.00
3:53 pm 15:53 Sunny 50 10 30 -1.1 46 46 NNW 10 17 29.99 1016 10 16 0.00 0.00
4:53 pm 16:53 Partly Cloudy 45 7.2 31 -0.6 58 58 N 9 15 30.02 1017 10 16 0.00 0.00
5:53 pm 17:53 Mostly Cloudy 43 6.1 31 -0.6 63 63 SW 5 7 30.04 1017 10 16 0.00 0.00
6:53 pm 18:53 Partly Cloudy 42 5.6 31 -0.6 65 65 Calm 30.05 1018 10 16 0.00 0.00
7:53 pm 19:53 Mostly Cloudy 40 4.4 31 -0.6 70 70 WNW 7 11 30.04 1017 10 16 0.00 0.00
8:53 pm 20:53 Cloudy 41 5 32 0 70 70 WNW 5 7 30.05 1018 10 16 0.00 0.00
9:53 pm 21:53 Cloudy 41 5 32 0 70 70 W 8 13 30.05 1018 10 16 0.00 0.00
10:53 pm 22:53 Cloudy with Light Rain 40 4.4 34 1.1 79 79 NW 5 7 30.03 1017 10 16 0.00 0.00
11:46 pm 23:46 Cloudy with Light Rain 39 4 36 2 87 87 W 5 7 30.09 1019 10 16 0.00 0.00
11:53 pm 23:53 Cloudy with Light Rain 39 3.9 36 2.2 89 89 WNW 6 9 30.02 1017 10 16 0.01 0.25

Powered by AerisWeather